�������l�o���
Date,Time,MP-1(��Sv/h),MP-2(��Sv/h),MP-3(��Sv/h),MP-4(��Sv/h),MP-5(��Sv/h),MP-6(��Sv/h),MP-7(��Sv/h),MP-8(��Sv/h),����,����(m/s),���J
2018/03/15,00:00,0.859,1.438,0.895,1.680,1.135,0.485,0.854,0.820,�쐼,3.6,��
2018/03/15,00:10,0.860,1.439,0.897,1.678,1.138,0.484,0.851,0.819,�쐼,3.5,��
2018/03/15,00:20,0.860,1.441,0.896,1.677,1.137,0.485,0.850,0.818,�쐼,1.9,��
2018/03/15,00:30,0.858,1.440,0.896,1.678,1.135,0.487,0.851,0.819,��쐼,3.9,��
2018/03/15,00:40,0.857,1.442,0.897,1.679,1.133,0.485,0.852,0.819,�쐼,3.8,��
2018/03/15,00:50,0.860,1.439,0.896,1.679,1.133,0.485,0.852,0.819,�쐼,3.6,��
2018/03/15,01:00,0.857,1.439,0.897,1.679,1.133,0.485,0.852,0.821,��쐼,4.3,��
2018/03/15,01:10,0.860,1.441,0.897,1.680,1.135,0.486,0.852,0.819,��쐼,4.2,��
2018/03/15,01:20,0.857,1.439,0.896,1.679,1.134,0.484,0.852,0.818,�쐼,5.5,��
2018/03/15,01:30,0.859,1.437,0.899,1.676,1.133,0.485,0.851,0.820,�쐼,6.1,��
2018/03/15,01:40,0.860,1.438,0.897,1.678,1.134,0.485,0.852,0.819,���쐼,5.2,��
2018/03/15,01:50,0.857,1.438,0.895,1.677,1.135,0.487,0.852,0.818,���쐼,4.0,��
2018/03/15,02:00,0.859,1.438,0.896,1.677,1.133,0.484,0.852,0.817,���쐼,2.9,��
2018/03/15,02:10,0.857,1.439,0.895,1.679,1.134,0.486,0.852,0.820,���쐼,4.1,��
2018/03/15,02:20,0.858,1.438,0.895,1.677,1.136,0.486,0.853,0.819,�쐼,3.1,��
2018/03/15,02:30,0.858,1.439,0.894,1.678,1.134,0.487,0.852,0.817,��,3.3,��
2018/03/15,02:40,0.859,1.438,0.895,1.676,1.137,0.486,0.852,0.820,��,2.8,��
2018/03/15,02:50,0.859,1.440,0.898,1.677,1.133,0.486,0.852,0.818,��쐼,3.4,��
2018/03/15,03:00,0.861,1.437,0.898,1.678,1.134,0.487,0.851,0.819,��쐼,3.3,��
2018/03/15,03:10,0.858,1.438,0.896,1.676,1.134,0.485,0.852,0.819,��,2.5,��
2018/03/15,03:20,0.860,1.437,0.897,1.679,1.135,0.485,0.854,0.819,��,3.0,��
2018/03/15,03:30,0.862,1.438,0.897,1.676,1.132,0.486,0.851,0.818,��,3.7,��
2018/03/15,03:40,0.861,1.439,0.897,1.678,1.134,0.485,0.853,0.819,��쐼,3.9,��
2018/03/15,03:50,0.857,1.439,0.896,1.679,1.134,0.484,0.851,0.818,��쐼,3.7,��
2018/03/15,04:00,0.861,1.437,0.894,1.677,1.133,0.485,0.852,0.818,��쐼,4.0,��
2018/03/15,04:10,0.859,1.439,0.898,1.677,1.134,0.485,0.851,0.818,��쐼,4.6,��
2018/03/15,04:20,0.858,1.440,0.897,1.677,1.135,0.486,0.852,0.820,��쐼,4.4,��
2018/03/15,04:30,0.859,1.436,0.897,1.675,1.136,0.485,0.853,0.819,�쐼,4.2,��
2018/03/15,04:40,0.860,1.439,0.895,1.675,1.135,0.487,0.852,0.820,�쐼,3.8,��
2018/03/15,04:50,0.857,1.438,0.896,1.677,1.136,0.485,0.853,0.819,�쐼,3.7,��
2018/03/15,05:00,0.858,1.437,0.900,1.677,1.134,0.484,0.853,0.819,�쐼,3.8,��
2018/03/15,05:10,0.860,1.437,0.894,1.676,1.132,0.485,0.854,0.819,�쐼,2.9,��
2018/03/15,05:20,0.859,1.440,0.898,1.677,1.133,0.484,0.854,0.819,��쐼,3.1,��
2018/03/15,05:30,0.858,1.438,0.898,1.679,1.131,0.486,0.851,0.817,�쐼,3.2,��
2018/03/15,05:40,0.858,1.438,0.898,1.676,1.135,0.485,0.852,0.820,�쐼,3.3,��
2018/03/15,05:50,0.857,1.437,0.896,1.678,1.132,0.486,0.851,0.817,�쐼,3.4,��
2018/03/15,06:00,0.856,1.437,0.895,1.678,1.134,0.483,0.851,0.818,�쐼,3.5,��
2018/03/15,06:10,0.857,1.437,0.894,1.678,1.135,0.487,0.849,0.819,�쐼,3.9,��
2018/03/15,06:20,0.858,1.438,0.895,1.679,1.135,0.486,0.853,0.820,�쐼,3.9,��
2018/03/15,06:30,0.858,1.439,0.894,1.677,1.135,0.484,0.852,0.818,��쐼,3.9,��
2018/03/15,06:40,0.858,1.436,0.897,1.677,1.137,0.486,0.851,0.819,��쐼,5.1,��
2018/03/15,06:50,0.860,1.438,0.897,1.676,1.135,0.486,0.852,0.819,��쐼,4.8,��
2018/03/15,07:00,0.858,1.439,0.897,1.677,1.133,0.484,0.852,0.820,��쐼,4.4,��
2018/03/15,07:10,0.859,1.440,0.897,1.678,1.135,0.486,0.852,0.820,��쐼,3.3,��
2018/03/15,07:20,0.856,1.440,0.897,1.677,1.134,0.485,0.853,0.819,��쐼,3.4,��
2018/03/15,07:30,0.856,1.439,0.897,1.680,1.135,0.485,0.850,0.819,��쐼,3.7,��
2018/03/15,07:40,0.858,1.439,0.897,1.679,1.134,0.486,0.853,0.819,��쐼,3.6,��
2018/03/15,07:50,0.859,1.437,0.897,1.678,1.136,0.484,0.854,0.820,��쐼,4.3,��
2018/03/15,08:00,0.860,1.440,0.895,1.680,1.136,0.485,0.852,0.821,��쐼,4.3,��
2018/03/15,08:10,0.858,1.441,0.897,1.678,1.135,0.485,0.853,0.822,��,4.3,��
2018/03/15,08:20,0.859,1.439,0.897,1.678,1.132,0.485,0.853,0.819,��,4.7,��
2018/03/15,08:30,0.861,1.440,0.896,1.678,1.138,0.485,0.853,0.820,��,5.2,��
2018/03/15,08:40,0.859,1.440,0.896,1.680,1.137,0.486,0.851,0.820,��,4.6,��
2018/03/15,08:50,0.860,1.440,0.897,1.681,1.139,0.485,0.851,0.822,��,5.8,��
2018/03/15,09:00,0.862,1.441,0.900,1.679,1.138,0.485,0.852,0.821,��,7.6,��
2018/03/15,09:10,0.863,1.438,0.897,1.680,1.140,0.485,0.852,0.822,��,8.2,��
2018/03/15,09:20,0.863,1.438,0.899,1.680,1.138,0.487,0.852,0.819,��쓌,9.3,��
2018/03/15,09:30,0.862,1.440,0.900,1.682,1.139,0.486,0.853,0.820,��쓌,10.2,��
2018/03/15,09:40,0.862,1.439,0.899,1.682,1.137,0.485,0.853,0.821,��,8.5,��
2018/03/15,09:50,0.861,1.441,0.898,1.683,1.139,0.486,0.853,0.819,��쓌,8.0,��
2018/03/15,10:00,0.861,1.439,0.900,1.683,1.137,0.484,0.853,0.818,��쓌,7.6,��
2018/03/15,10:10,0.863,1.441,0.900,1.683,1.141,0.483,0.853,0.821,��,7.3,��
2018/03/15,10:20,0.861,1.442,0.899,1.679,1.138,0.484,0.854,0.817,��,6.9,��
2018/03/15,10:30,0.862,1.437,0.900,1.684,1.139,0.485,0.854,0.820,��,6.8,��
2018/03/15,10:40,0.862,1.445,0.899,1.686,1.140,0.484,0.854,0.819,��,8.0,��
2018/03/15,10:50,0.863,1.440,0.899,1.685,1.138,0.487,0.854,0.818,��,8.9,��
2018/03/15,11:00,0.864,1.444,0.898,1.683,1.140,0.489,0.855,0.818,��,7.1,��
2018/03/15,11:10,0.863,1.443,0.900,1.683,1.140,0.488,0.854,0.818,��쓌,6.9,��
2018/03/15,11:20,0.860,1.446,0.901,1.685,1.141,0.487,0.857,0.819,��쓌,6.4,��
2018/03/15,11:30,0.863,1.442,0.898,1.686,1.140,0.486,0.856,0.819,��,6.8,��
2018/03/15,11:40,0.862,1.446,0.900,1.684,1.141,0.486,0.854,0.820,��쓌,8.6,��
2018/03/15,11:50,0.864,1.443,0.899,1.687,1.139,0.487,0.853,0.819,��,8.5,��
2018/03/15,12:00,0.864,1.447,0.900,1.684,1.140,0.488,0.855,0.819,��,10.2,��
2018/03/15,12:10,0.864,1.444,0.900,1.684,1.140,0.488,0.855,0.820,��,9.8,��
2018/03/15,12:20,0.863,1.449,0.901,1.688,1.140,0.488,0.854,0.818,��,10.5,��
2018/03/15,12:30,0.862,1.448,0.901,1.686,1.141,0.487,0.855,0.819,��,10.3,��
2018/03/15,12:40,0.863,1.449,0.899,1.686,1.140,0.487,0.855,0.820,��쓌,10.7,��
2018/03/15,12:50,0.865,1.447,0.899,1.687,1.144,0.486,0.856,0.820,��,11.6,��
2018/03/15,13:00,0.863,1.447,0.901,1.689,1.142,0.487,0.856,0.819,��,10.7,��
2018/03/15,13:10,0.863,1.445,0.900,1.683,1.143,0.488,0.856,0.820,��쓌,12.4,��
2018/03/15,13:20,0.864,1.448,0.901,1.686,1.142,0.487,0.852,0.819,��쓌,14.1,��
2018/03/15,13:30,0.864,1.448,0.901,1.686,1.142,0.488,0.855,0.820,��쓌,13.5,��
2018/03/15,13:40,0.864,1.449,0.899,1.684,1.142,0.487,0.856,0.818,��쓌,13.5,��
2018/03/15,13:50,0.862,1.445,0.900,1.686,1.143,0.487,0.855,0.818,��쓌,12.5,��
2018/03/15,14:00,0.860,1.447,0.900,1.688,1.144,0.487,0.855,0.819,��쓌,11.8,��
2018/03/15,14:10,0.862,1.446,0.899,1.684,1.140,0.486,0.854,0.819,��쓌,11.3,��
2018/03/15,14:20,0.864,1.447,0.900,1.687,1.142,0.488,0.853,0.819,��,9.8,��
2018/03/15,14:30,0.863,1.447,0.901,1.686,1.142,0.488,0.855,0.820,��,7.8,��
2018/03/15,14:40,0.866,1.446,0.898,1.685,1.143,0.489,0.855,0.820,��,7.2,��
2018/03/15,14:50,0.864,1.449,0.900,1.685,1.142,0.490,0.857,0.823,��,7.8,��
2018/03/15,15:00,0.863,1.448,0.900,1.689,1.144,0.490,0.857,0.821,��쐼,6.3,��
2018/03/15,15:10,0.865,1.451,0.903,1.687,1.144,0.489,0.859,0.821,��,5.8,��
2018/03/15,15:20,0.866,1.450,0.903,1.688,1.144,0.491,0.856,0.819,��,7.2,��
2018/03/15,15:30,0.864,1.446,0.900,1.690,1.144,0.490,0.856,0.820,��,8.2,��
2018/03/15,15:40,0.864,1.451,0.903,1.690,1.143,0.488,0.858,0.821,��,8.8,��
2018/03/15,15:50,0.865,1.446,0.903,1.688,1.142,0.490,0.857,0.819,��,7.0,��
2018/03/15,16:00,0.864,1.449,0.901,1.689,1.143,0.489,0.856,0.819,��,7.1,��
2018/03/15,16:10,0.866,1.449,0.903,1.685,1.147,0.490,0.857,0.820,��,6.1,��
2018/03/15,16:20,0.865,1.450,0.903,1.690,1.142,0.491,0.857,0.820,��,6.4,��
2018/03/15,16:30,0.864,1.447,0.902,1.689,1.145,0.492,0.857,0.819,��,7.3,��
2018/03/15,16:40,0.866,1.450,0.899,1.691,1.145,0.491,0.856,0.820,��,7.8,��
2018/03/15,16:50,0.867,1.448,0.900,1.687,1.144,0.491,0.855,0.820,��쐼,7.1,��
2018/03/15,17:00,0.867,1.452,0.901,1.691,1.146,0.491,0.856,0.820,��쐼,5.4,��
2018/03/15,17:10,0.866,1.452,0.903,1.687,1.144,0.492,0.855,0.821,���쐼,4.5,��
2018/03/15,17:20,0.868,1.452,0.902,1.687,1.142,0.491,0.857,0.822,��,4.0,��
2018/03/15,17:30,0.867,1.452,0.905,1.688,1.145,0.493,0.857,0.823,��,3.7,��
2018/03/15,17:40,0.869,1.451,0.906,1.689,1.145,0.493,0.856,0.821,��,6.7,��
2018/03/15,17:50,0.870,1.453,0.906,1.689,1.146,0.491,0.857,0.824,��,6.0,��
2018/03/15,18:00,0.871,1.450,0.907,1.689,1.147,0.493,0.858,0.824,��,5.3,��
2018/03/15,18:10,0.868,1.453,0.906,1.687,1.149,0.492,0.856,0.825,���k��,5.2,��
2018/03/15,18:20,0.872,1.452,0.904,1.687,1.146,0.493,0.858,0.823,���k��,3.8,��
2018/03/15,18:30,0.869,1.457,0.905,1.687,1.149,0.492,0.858,0.826,���k��,3.8,��
2018/03/15,18:40,0.868,1.452,0.906,1.688,1.146,0.492,0.858,0.824,��,3.5,��
2018/03/15,18:50,0.870,1.451,0.906,1.689,1.148,0.492,0.857,0.824,���k��,3.7,��
2018/03/15,19:00,0.869,1.451,0.904,1.687,1.146,0.492,0.858,0.823,���k��,4.0,��
2018/03/15,19:10,0.869,1.452,0.905,1.687,1.147,0.492,0.858,0.822,��,4.4,��
2018/03/15,19:20,0.868,1.450,0.904,1.688,1.145,0.492,0.857,0.823,��,2.9,��
2018/03/15,19:30,0.868,1.451,0.904,1.687,1.148,0.490,0.858,0.824,���k��,2.3,��
2018/03/15,19:40,0.869,1.451,0.905,1.686,1.147,0.491,0.856,0.823,��,2.5,��
2018/03/15,19:50,0.867,1.448,0.906,1.690,1.145,0.492,0.857,0.822,��,4.5,��
2018/03/15,20:00,0.868,1.450,0.902,1.687,1.146,0.491,0.856,0.824,��,3.7,��
2018/03/15,20:10,0.867,1.450,0.905,1.684,1.146,0.490,0.856,0.821,���쐼,3.3,��
2018/03/15,20:20,0.869,1.450,0.905,1.688,1.147,0.493,0.855,0.822,���쐼,3.2,��
2018/03/15,20:30,0.868,1.451,0.905,1.688,1.145,0.492,0.857,0.822,���쐼,3.9,��
2018/03/15,20:40,0.869,1.453,0.904,1.688,1.148,0.493,0.859,0.822,��쐼,2.3,��
2018/03/15,20:50,0.868,1.450,0.906,1.687,1.146,0.490,0.855,0.822,��쐼,2.9,��
2018/03/15,21:00,0.870,1.453,0.904,1.687,1.146,0.492,0.858,0.821,��쐼,2.8,��
2018/03/15,21:10,0.869,1.451,0.903,1.691,1.148,0.491,0.857,0.824,��쐼,2.6,��
2018/03/15,21:20,0.869,1.450,0.905,1.686,1.145,0.490,0.856,0.822,��,2.5,��
2018/03/15,21:30,0.869,1.449,0.904,1.689,1.145,0.490,0.857,0.823,��쐼,3.7,��
2018/03/15,21:40,0.867,1.452,0.905,1.689,1.143,0.491,0.856,0.823,��,4.3,��
2018/03/15,21:50,0.869,1.452,0.903,1.687,1.147,0.490,0.856,0.823,��,5.7,��
2018/03/15,22:00,0.868,1.449,0.905,1.686,1.150,0.490,0.856,0.824,��,5.7,��
2018/03/15,22:10,0.870,1.453,0.905,1.688,1.146,0.489,0.857,0.825,��,5.8,��
2018/03/15,22:20,0.869,1.448,0.905,1.686,1.148,0.491,0.857,0.822,��,5.5,��
2018/03/15,22:30,0.869,1.453,0.905,1.691,1.146,0.492,0.856,0.823,��쐼,5.4,��
2018/03/15,22:40,0.867,1.450,0.905,1.690,1.149,0.490,0.856,0.823,��쐼,4.5,��
2018/03/15,22:50,0.869,1.448,0.905,1.689,1.146,0.491,0.856,0.824,��쐼,4.0,��
2018/03/15,23:00,0.869,1.448,0.902,1.689,1.147,0.489,0.857,0.821,��쐼,3.7,��
2018/03/15,23:10,0.869,1.452,0.905,1.691,1.146,0.491,0.857,0.823,��,3.0,��
2018/03/15,23:20,0.868,1.451,0.904,1.688,1.149,0.491,0.857,0.825,��쐼,3.2,��
2018/03/15,23:30,0.868,1.450,0.902,1.687,1.147,0.489,0.856,0.823,�쐼,2.8,��
2018/03/15,23:40,0.868,1.448,0.904,1.691,1.144,0.490,0.858,0.823,�쐼,2.6,��
2018/03/15,23:50,0.868,1.450,0.904,1.688,1.145,0.490,0.859,0.822,�쐼,2.9,��
